Terug naar catalogus

STARLINK-3708

ActiefCommunicatieVLEO
NORAD 52111·PAYLOAD·🇺🇸 United States

Gelanceerd Mar 19, 2022 vanaf Cape Canaveral Space Force Station

Loading…

Volgende Passages (komende 24 uur)

TLE

VersSource: CelesTrak SupGP

Epoch: Sep 14, 2026, 14:29 UTC

1 52111C 22029Z   26257.60395833  .00040175  00000+0  11873-2 0  2579
2 52111  53.1578 296.9403 0001282  76.7088  37.4246 15.34362387    12

Volg STARLINK-3708 in realtime met AllMySat

Download on the App Store